Location: Bittkow
(50.3000°N, 19.0000°E)
Time: 22:27:23
(UTC+00:00)

Cosmos 1733 Rocket - Pass Details

Date: 19 September 2020
Orbit: 602 x 629 km, 82.5° (Epoch: 30 October)

Event Time Altitude Azimuth Distance (km) Brightness Sun altitude
Rises 03:40:19 0° 347° (NNW) 2,897 6.5 -8.1°
Reaches altitude 10° 03:42:34 10° 345° (NNW) 1,983 5.6 -7.7°
Maximum altitude 03:46:54 67° 264° (W) 666 3.0 -7.1°
Drops below altitude 10° 03:51:12 10° 182° (S) 1,952 5.5 -6.4°
Sets 03:53:24 0° 179° (S) 2,848 6.4 -6.0°
